Location: Unspecified
(35.6961°N, 0.0000°E)
Time: 14:12:03
(UTC+00:00)

S-56A Canister/Altair - Pass Details

Date: 03 June 2019
Orbit: 633 x 2499 km, 38.9° (Epoch: 25 June)

Event Time Altitude Azimuth Distance (km) Brightness Sun altitude
Rises 19:47:25 0° 205° (SSW) 3,196 10.6 -7.0°
Reaches altitude 10° 19:50:47 10° 184° (S) 2,107 9.5 -7.6°
Maximum altitude 19:53:40 16° 145° (SE) 1,652 8.7 -8.1°
Drops below altitude 10° 19:56:26 10° 105° (ESE) 2,005 9.1 -8.5°
Enters shadow 19:56:55 - 101° (E) 2,128 9.2 -8.6°
Sets 19:59:30 0° 84° (E) 2,961 - -9.1°
